Regional Weather Roundup
Issued by NWS

Home | Current Version | Previous Version | Text Only | Print | Product List | Glossary On
Versions: 1 2 3 4 5 6 7 8 9 10 11 12 13 14 15 16 17 18 19 20 21 22 23 24 25 26 27 28 29 30 31 32 33 34 35 36 37 38 39 40 41 42 43 44 45 46 47 48 49 50
000
ASUS45 KPSR 301310
RWRAZ

ARIZONA HOURLY REGIONAL WEATHER ROUNDUP
NATIONAL WEATHER SERVICE PHOENIX AZ
600 AM MST SAT MAY 30 2015

NOTE: FAIR INDICATES FEW OR NO CLOUDS BELOW 12,000 FEET WITH NO
SIGNIFICANT WEATHER AND/OR OBSTRUCTIONS TO VISIBILITY.

AZZ001>003-036-301400-
NORTHWEST ARIZONA

CITY           SKY/WX    TMP DP  RH WIND       PRES   REMARKS
KINGMAN        CLEAR     65  17  15 SE9       30.05R
$$

AZZ004>008-015-016-018-301400-
NORTH CENTRAL ARIZONA

CITY           SKY/WX    TMP DP  RH WIND       PRES   REMARKS
GRAND CANYON   CLEAR     46  38  73 NE3       30.28R
WILLIAMS       CLEAR     46  34  61 S9        30.34R
PRESCOTT       CLEAR     55  29  36 CALM      30.17R
FLAGSTAFF      CLEAR     40  35  83 CALM      30.31R
PAYSON         CLEAR     66  34  30 CALM      30.18R
PAGE           PTCLDY    66  44  45 NW3       30.16R
$$

AZZ009>014-017-301400-
NORTHEAST ARIZONA

CITY           SKY/WX    TMP DP  RH WIND       PRES   REMARKS
WINSLOW        CLEAR     51  35  54 SW3       30.21R
SAINT JOHNS    CLEAR     49  28  44 CALM      30.23R
WINDOW ROCK    CLEAR     44  33  65 NW3       30.31R
SHOW LOW       CLEAR     48  30  49 CALM      30.27R
$$

AZZ023-301400-
GREATER PHOENIX AREA

CITY           SKY/WX    TMP DP  RH WIND       PRES   REMARKS
PHOENIX        PTCLDY    75  40  28 E6        29.89R
BUCKEYE        CLEAR     72  27  18 N6        29.90R
LUKE AFB       CLEAR     70  37  30 N3        29.89R
DEER VALLEY    CLEAR     70  33  25 CALM      29.91R
SCOTTSDALE     CLEAR     71  42  35 CALM      29.93R
MESA-FALCON    PTCLDY    73  32  21 NE6       29.92R
MESA-GATEWAY   PTCLDY    64  37  36 SE7       29.93R
CHANDLER       PTCLDY    68  43  40 NE6       29.91
$$

AZZ027-028-301400-
SOUTHWEST MARICOPA COUNTY AND PINAL COUNTY

CITY           SKY/WX    TMP DP  RH WIND       PRES   REMARKS
CASA GRANDE    CLEAR     64  37  36 CALM      29.92R
GILA BEND      FAIR      70  39  31 S7        29.88R
$$

AZZ503-504-507>509-301400-
SOUTHEAST ARIZONA

CITY           SKY/WX    TMP DP  RH WIND       PRES   REMARKS
TUCSON         CLEAR     68  36  30 SE7       30.03R
DAVIS-MONTHAN  CLEAR     68  33  27 S9        30.01R
RYAN FIELD       N/A     63  36  36 CALM      30.02
NOGALES        CLEAR     58  37  45 CALM      30.09R
SIERRA VISTA   CLEAR     64  28  25 SW5       30.14S
DOUGLAS        CLEAR     56  26  31 NE6       30.11R
SAFFORD        CLEAR     62  22  21 S5        30.02R
$$

AZZ020-021-025-026-031-301400-
SOUTHWEST ARIZONA

CITY           SKY/WX    TMP DP  RH WIND       PRES   REMARKS
YUMA           CLEAR     71  37  28 CALM      29.85R
$$

CAZ031-033-041-043-047-048-061-301400-
SOUTHERN CALIFORNIA

CITY           SKY/WX    TMP DP  RH WIND       PRES   REMARKS
DOWNTOWN L.A.  CLOUDY    60  57  89 CALM      29.92R FOG
L.A. AIRPORT   CLOUDY    57  57 100 E3        29.93R FOG
SAN DIEGO      CLOUDY    62  56  80 N3        29.93R
BURBANK        FOG       59  56  89 SE8       29.92R VSB 1
ONTARIO        MOCLDY    59  55  87 CALM      29.92R FOG
RIVERSIDE      PTCLDY    60  56  86 W3        29.93R FOG
PALM SPRINGS   CLEAR     80  48  32 NW8       29.87R
EL CENTRO NAS  PTCLDY    64  51  62 NE6       29.84R
IMPERIAL       CLEAR     67  51  56 E5        29.82R
BLYTHE         CLEAR     68  33  27 N6        29.85R
NEEDLES        CLEAR     75  29  18 W7        29.88R
$$

NVZ020-UTZ003-301400-
SOUTHERN NEVADA-UTAH

CITY           SKY/WX    TMP DP  RH WIND       PRES   REMARKS
LAS VEGAS      PTCLDY    75  27  17 SW7       29.91R
SALT LAKE CITY PTCLDY    58  45  62 SE10      30.10R
$$

NMZ009-TXZ055-301400-
NEW MEXICO-WEST TEXAS

CITY           SKY/WX    TMP DP  RH WIND       PRES   REMARKS
ALBUQUERQUE    MOSUNNY   60  46  59 E16       30.28R
EL PASO        MOSUNNY   69  53  56 NE14      30.13R
$$


........................KEY........................
SKY/WX - SKY CONDITION/WEATHER
TMP    - TEMPERATURE IN FAHRENHEIT
DP     - DEW POINT IN FAHRENHEIT
RH     - RELATIVE HUMIDITY IN PERCENT
WIND   - DIRECTION AND SPEED IN MILES PER HOUR (MPH)
VRB    - VARIABLE WIND DIRECTION
PRES   - MEAN SEA LEVEL PRESSURE IN INCHES OF MERCURY
         F - FALLING PRESSURE   R - RISING PRESSURE
         S - STEADY PRESSURE
VSB    - VISIBILITY IN MILES
HX     - HEAT INDEX IN FAHRENHEIT
WCI    - WIND CHILL INDEX IN FAHRENHEIT
TC     - TEMPERATURE IN CELSIUS WHICH IS ALSO KNOWN AS
         TEMPERATURE IN CENTIGRADE
AFB    - AIR FORCE BASE
         LUKE AFB IS LUKE AIR FORCE BASE
         DAVIS-MONTHAN IS DAVIS-MONTHAN AIR FORCE BASE
NAS    - NAVAL AIR STATION
         EL CENTRO NAS IS EL CENTRO NAVAL AIR STATION
N/A    - NOT AVAILABLE



USA.gov is the U.S. government's official web portal to all federal, state and local government web resources and services.